Location: Newark
(25.7507°S, 31.4676°E)
Time: 18:45:33
(UTC+00:00)

Hubble Space Telescope - Pass Details

Date: 28 January 2020
Orbit: 536 x 540 km, 28.5° (Epoch: 19 February)

Event Time Altitude Azimuth Distance (km) Brightness Sun altitude
Rises 17:53:46 0° 271° (W) 2,690 5.5 -14.4°
Reaches altitude 10° 17:56:04 10° 267° (W) 1,799 4.5 -14.8°
Maximum altitude 18:00:11 62° 186° (S) 610 1.1 -15.7°
Enters shadow 18:02:58 20° 109° (ESE) 1,294 2.3 -16.2°
